Location: ???????
(55.8860°N, 38.0932°E)
Time: 16:05:02
(UTC+00:00)

Lacrosse 5 - Pass Details

Date: 14 April 2024
Orbit: 714 x 724 km, 57.0° (Epoch: 09 March)

Event Time Altitude Azimuth Distance (km) Brightness Sun altitude
Exits shadow 00:05:37 30° 223° (SW) 1,283 2.6 -16.9°
Maximum altitude 00:08:02 63° 153° (SSE) 807 2.0 -16.7°
Drops below altitude 10° 00:13:06 10° 72° (ENE) 2,222 5.3 -16.2°
Sets 00:15:30 0° 70° (ENE) 3,145 6.4 -16.0°
